sat.trackr.live / text

‹ back to catalog

STARLINK-5856

NORAD 55914 · 2023-037A

PAYLOAD ACTIVE UNKNOWN

§ Identity

Operator
Country
US
Launch date
2023-03-17
Launch site
AFWTR
Launch vehicle
Mass (kg)
RCS (m²)

Purposes: comms

External: N2YO · Heavens-Above · Gunter

§ Orbital elements

Epoch: 2026-05-25T04:45:12.441024Z

Period
96.11 min
Inclination
69.9992°
Eccentricity
0.0003403
Mean motion
14.98331937 rev/d
Perigee alt
569.7 km
Apogee alt
574.4 km
Semi-major
6,950.2 km
B*
6.8306e-6
RAAN
111.7057°
Arg perigee
268.4692°
Mean anomaly
91.6078°
Rev number
17,563

§ Raw data

STARLINK-58561 55914U 23037A   26145.19806066 -.00000012  00000+0  68306-5 0  99942 55914  69.9992 111.7057 0003403 268.4692  91.6078 14.98331937175630

JSON: /api/v1/satellites/55914 · /tle

For live sub-satellite position, see the globe view (requires WebGL).

§ Visibility from observer

Set your observer location to see the next 7 days of passes ≥ 10°. The values pass through the URL so the page stays shareable.

No JS? Fill the form by hand. The geolocation button needs JavaScript.